User: anonymous   Login
Location: Be Tobo
(6.6442°N, 10.6239°W)
Time: 02:41:36
(UTC+00:00)
Language:

Cosmos 2034 Rocket - Orbit

View from above orbital plane
View from above orbital plane
View from above satellite
View from above satellite

Ground track
Ground track

The orbit data is extracted from the following two-line orbital elements,

1 20150U 89059B   20334.53496720 +.00000045 +00000-0 +30465-4 0  9998
2 20150 082.9422 238.3516 0029264 002.9996 170.3341 13.75639974573595
Epoch (UTC): 29 November 2020 12:50:21
Eccentricity: 0.0029264
inclination: 82.9422°
perigee height: 958 km
apogee height: 1001 km
right ascension of ascending node: 238.3516°
argument of perigee: 2.9996°
revolutions per day: 13.75639974
mean anomaly at epoch: 170.3341°
orbit number at epoch: 57359

The dashed part of the orbit path shows where the satellite is in the earth's shadow,  

DLR